Location: Poprad
(49.0500°N, 20.3000°E)
Time: 12:50:05
(UTC+01:00)

BlueWalker 3 - Pass Details

Date: 29 November 2023
Orbit: 485 x 500 km, 53.2° (Epoch: 27 February)

Event Time Altitude Azimuth Distance (km) Brightness Sun altitude
Exits shadow 04:33:11 44° 46° (NE) 706 2.8 -24.7°
Drops below altitude 10° 04:36:15 10° 88° (E) 1,696 5.7 -24.2°
Sets 04:38:29 0° 94° (E) 2,574 7.0 -23.8°
